DW9161 Weather Reports


Display with metric or nautical units.
time (UTC)temp
F
wind
direction
speed
MPH
gust
MPH
rain 1hr
in
rain 24hr
in
rain mn
in
humidity
%
barometer
mb
20260901143536 80 188 3.0 6.0 0.00 0.00 0.00 69 1014.0
20260901143053 80 175 2.0 5.0 0.00 0.00 0.00 69 1014.2
20260901142550 80 226 1.0 7.0 0.00 0.00 0.00 70 1014.3
20260901142047 79 176 2.0 7.0 0.00 0.00 0.00 69 1014.2
20260901141545 79 190 2.0 6.0 0.00 0.00 0.00 69 1014.2
20260901141043 79 188 3.0 6.0 0.00 0.00 0.00 69 1014.1
20260901140550 79 191 3.0 6.0 0.00 0.00 0.00 69 1014.1
20260901140033 79 184 1.0 6.0 0.00 0.00 0.00 69 1014.2
20260901135532 79 185 2.0 7.0 0.00 0.00 0.00 69 1014.2
20260901135048 79 184 3.0 7.0 0.00 0.00 0.00 68 1014.2
20260901134547 79 198 2.0 5.0 0.00 0.00 0.00 69 1014.2
20260901134044 79 187 1.0 4.0 0.00 0.00 0.00 68 1014.3
20260901133543 79 186 2.0 4.0 0.00 0.00 0.00 69 1014.2
20260901133040 79 186 2.0 4.0 0.00 0.00 0.00 69 1014.2
20260901132538 79 185 2.0 4.0 0.00 0.00 0.00 70 1014.3
20260901132035 78 188 2.0 4.0 0.00 0.00 0.00 70 1014.3
20260901131533 78 196 0.0 3.0 0.00 0.00 0.00 71 1014.4
20260901131030 78 195 0.0 3.0 0.00 0.00 0.00 71 1014.3
20260901130558 77 195 0.0 3.0 0.00 0.00 0.00 72 1014.2
20260901130037 77 193 0.0 1.0 0.00 0.00 0.00 72 1014.3
20260901125555 77 194 0.0 0.0 0.00 0.00 0.00 73 1014.2
20260901125031 76 194 0.0 0.0 0.00 0.00 0.00 74 1014.1
20260901124550 76 194 0.0 0.0 0.00 0.00 0.00 74 1014.1
20260901124047 76 194 0.0 0.0 0.00 0.00 0.00 74 1014.1
20260901123545 76 193 0.0 0.0 0.00 0.00 0.00 74 1014.0
20260901123106 76 199 0.0 0.0 0.00 0.00 0.00 75 1013.9
20260901122605 76 199 0.0 0.0 0.00 0.00 0.00 75 1014.0
20260901122039 76 199 0.0 0.0 0.00 0.00 0.00 76 1013.7
20260901121541 76 199 0.0 0.0 0.00 0.00 0.00 76 1013.7
20260901121037 76 199 0.0 0.0 0.00 0.00 0.00 76 1013.5
20260901120609 76 199 0.0 0.0 0.00 0.00 0.00 77 1013.6
20260901120045 76 199 0.0 0.0 0.00 0.00 0.00 77 1013.7
20260901115544 76 199 0.0 0.0 0.00 0.00 0.00 77 1013.5
20260901115101 76 199 0.0 0.0 0.00 0.00 0.00 78 1013.5
20260901114558 76 199 0.0 0.0 0.00 0.00 0.00 78 1013.6
20260901114034 76 199 0.0 0.0 0.00 0.00 0.00 78 1013.5
20260901113533 76 199 0.0 0.0 0.00 0.00 0.00 78 1013.6
20260901113032 77 199 0.0 0.0 0.00 0.00 0.00 78 1013.6
20260901112549 77 199 0.0 0.0 0.00 0.00 0.00 78 1013.6
20260901112047 77 199 0.0 0.0 0.00 0.00 0.00 77 1013.6
20260901111544 77 199 0.0 2.0 0.00 0.00 0.00 76 1013.6
20260901111043 77 199 1.0 3.0 0.00 0.00 0.00 76 1013.6
20260901110550 77 199 2.0 3.0 0.00 0.00 0.00 76 1013.7
20260901110050 77 199 1.0 3.0 0.00 0.00 0.00 76 1013.6
20260901105547 77 200 0.0 2.0 0.00 0.00 0.00 78 1013.6
20260901105044 77 200 1.0 3.0 0.00 0.00 0.00 78 1013.5
20260901104547 77 200 1.0 4.0 0.00 0.00 0.00 78 1013.6
20260901104044 77 215 2.0 4.0 0.00 0.00 0.00 78 1013.7
20260901103544 77 216 1.0 3.0 0.00 0.00 0.00 80 1013.8
20260901103041 77 216 1.0 3.0 0.00 0.00 0.00 80 1013.7
20260901102539 77 216 0.0 3.0 0.00 0.00 0.00 80 1013.7
20260901102037 77 216 1.0 3.0 0.00 0.00 0.00 80 1013.7
20260901101535 77 219 1.0 2.0 0.00 0.00 0.00 80 1013.8
20260901101032 78 219 0.0 2.0 0.00 0.00 0.00 80 1013.8
20260901100604 78 219 0.0 2.0 0.00 0.00 0.00 79 1013.9
20260901100040 78 219 0.0 2.0 0.00 0.00 0.00 79 1014.0
20260901095538 78 219 1.0 3.0 0.00 0.00 0.00 79 1013.9
20260901095035 78 219 0.0 2.0 0.00 0.00 0.00 79 1014.0
20260901094532 78 219 1.0 2.0 0.00 0.00 0.00 80 1014.1
20260901094031 78 262 0.0 0.0 0.00 0.00 0.00 80 1013.9
20260901093531 78 262 0.0 0.0 0.00 0.00 0.00 80 1013.9
20260901093049 78 262 0.0 0.0 0.00 0.00 0.00 80 1013.9
20260901092547 78 262 0.0 1.0 0.00 0.00 0.00 80 1013.9
20260901092044 78 262 0.0 1.0 0.00 0.00 0.00 80 1013.9
20260901091541 78 262 0.0 2.0 0.00 0.00 0.00 80 1013.9
20260901091038 78 262 1.0 2.0 0.00 0.00 0.00 80 1014.0
20260901090611 78 263 1.0 2.0 0.00 0.00 0.00 81 1014.0
20260901090109 78 264 0.0 1.0 0.00 0.00 0.00 82 1014.0
20260901085545 77 264 1.0 1.0 0.00 0.00 0.00 83 1014.0
20260901085044 77 264 0.0 1.0 0.00 0.00 0.00 84 1014.0
20260901084600 77 264 0.0 2.0 0.00 0.00 0.00 84 1013.9
20260901084037 76 264 1.0 2.0 0.00 0.00 0.00 86 1013.9
20260901083534 76 264 0.0 0.0 0.00 0.00 0.00 87 1013.9
20260901083053 76 264 0.0 0.0 0.00 0.00 0.00 87 1013.8
20260901082549 75 264 0.0 0.0 0.00 0.00 0.00 88 1013.8
20260901082048 75 264 0.0 0.0 0.00 0.00 0.00 88 1013.8
20260901081545 75 264 0.0 1.0 0.00 0.00 0.00 89 1013.8
20260901081105 75 264 0.0 1.0 0.00 0.00 0.00 88 1013.8
20260901080552 75 264 0.0 1.0 0.00 0.00 0.00 88 1013.9
20260901080031 75 264 0.0 0.0 0.00 0.00 0.00 88 1013.9
20260901075549 75 264 0.0 0.0 0.00 0.00 0.00 88 1013.9
20260901075047 75 264 0.0 0.0 0.00 0.00 0.00 88 1014.0
20260901074547 75 264 0.0 0.0 0.00 0.00 0.00 88 1013.9
20260901074108 75 264 0.0 0.0 0.00 0.00 0.00 88 1013.8
20260901073547 76 264 0.0 0.0 0.00 0.00 0.00 88 1013.9
20260901073107 76 264 0.0 0.0 0.00 0.00 0.00 87 1013.9
20260901072544 76 264 0.0 0.0 0.00 0.00 0.00 87 1013.9
20260901072100 76 264 0.0 2.0 0.00 0.00 0.00 87 1013.9
20260901071556 76 264 1.0 2.0 0.00 0.00 0.00 86 1013.9
20260901071033 76 264 0.0 0.0 0.00 0.00 0.00 86 1013.9
20260901070606 77 264 0.0 2.0 0.00 0.00 0.00 86 1014.0
20260901070044 77 264 0.0 0.0 0.00 0.00 0.00 85 1014.0
20260901065540 77 264 0.0 1.0 0.00 0.00 0.00 85 1014.0
20260901065120 77 264 0.0 1.0 0.00 0.00 0.00 84 1014.0
20260901064533 78 264 0.0 1.0 0.00 0.00 0.00 84 1014.0
20260901064032 78 264 0.0 0.0 0.00 0.00 0.00 83 1014.0
20260901063550 78 264 0.0 0.0 0.00 0.00 0.00 83 1013.9
20260901063109 79 264 0.0 1.0 0.00 0.00 0.00 82 1014.0
20260901062546 79 264 0.0 1.0 0.00 0.00 0.00 82 1014.0
20260901062044 79 264 0.0 1.0 0.00 0.00 0.00 82 1014.0
20260901061543 79 264 0.0 1.0 0.00 0.00 0.00 82 1014.1
20260901061041 78 264 0.0 1.0 0.00 0.00 0.00 83 1014.1
20260901060550 78 264 0.0 1.0 0.00 0.00 0.00 83 1014.2
20260901060027 78 264 0.0 0.0 0.00 0.00 0.00 84 1014.2
20260901055539 78 264 0.0 1.0 0.00 0.00 0.00 84 1014.2
20260901055040 78 264 0.0 1.0 0.00 0.00 0.00 84 1014.2
20260901054536 78 264 0.0 2.0 0.00 0.00 0.00 84 1014.2
20260901054033 78 264 1.0 2.0 0.00 0.00 0.00 84 1014.1
20260901053529 78 264 1.0 1.0 0.00 0.00 0.00 84 1014.2
20260901053042 78 264 0.0 1.0 0.00 0.00 0.00 83 1014.1
20260901052538 78 264 0.0 1.0 0.00 0.00 0.00 83 1014.3
20260901052035 78 264 0.0 0.0 0.00 0.00 0.00 84 1014.3
20260901051550 78 264 0.0 0.0 0.00 0.00 0.00 84 1014.4
20260901051046 78 264 0.0 0.0 0.00 0.00 0.00 84 1014.4
20260901050550 78 264 0.0 0.0 0.00 0.00 0.00 83 1014.4
20260901050117 78 264 0.0 0.0 0.00 0.00 0.00 83 1014.4
20260901045544 78 264 0.0 1.0 0.00 0.00 0.00 82 1014.4
20260901045039 79 264 0.0 1.0 0.00 0.00 0.00 82 1014.3
20260901044537 79 264 0.0 1.0 0.00 0.00 0.00 82 1014.3
20260901044049 79 264 0.0 0.0 0.00 0.00 0.00 81 1014.2
20260901043546 79 264 0.0 0.0 0.00 0.00 0.00 82 1014.2
20260901043042 79 264 0.0 0.0 0.00 0.00 0.00 81 1014.1
20260901042539 79 264 0.0 0.0 0.00 0.00 0.00 81 1014.2
20260901042035 79 264 0.0 1.0 0.00 0.00 0.00 80 1014.3
20260901041532 80 264 0.0 1.0 0.00 0.00 0.00 80 1014.2
20260901041047 80 264 0.0 0.0 0.00 0.00 0.00 80 1014.2
20260901040556 80 264 0.0 1.0 0.00 0.00 0.00 80 1014.2
20260901040033 80 264 0.0 0.0 0.00 0.00 0.00 79 1014.2
20260901035532 80 264 0.0 0.0 0.00 0.00 0.00 79 1014.2
20260901035134 80 264 0.0 0.0 0.00 0.00 0.00 79 1014.1
20260901034544 80 264 0.0 0.0 0.00 0.00 0.00 79 1014.1
20260901034040 81 264 0.0 0.0 0.00 0.00 0.00 79 1014.0
20260901033540 81 264 0.0 0.0 0.00 0.00 0.00 79 1014.0
20260901033035 81 264 0.0 0.0 0.00 0.00 0.00 78 1014.1
20260901032532 81 264 0.0 0.0 0.00 0.00 0.00 78 1013.9
20260901032050 81 264 0.0 0.0 0.00 0.00 0.00 77 1013.9
20260901031546 81 264 0.0 0.0 0.00 0.00 0.00 77 1013.8
20260901031042 81 264 0.0 0.0 0.00 0.00 0.00 78 1013.9
20260901030611 81 264 0.0 0.0 0.00 0.00 0.00 76 1013.9
20260901030047 82 264 0.0 0.0 0.00 0.00 0.00 76 1013.8
20260901025544 82 264 0.0 0.0 0.00 0.00 0.00 76 1013.8
20260901025038 82 264 0.0 1.0 0.00 0.00 0.00 75 1013.7
20260901024535 82 264 0.0 2.0 0.00 0.00 0.00 76 1013.7
20260901024031 82 264 0.0 1.0 0.00 0.00 0.00 76 1013.7
20260901023547 82 264 0.0 0.0 0.00 0.00 0.00 76 1013.6
20260901023043 82 264 0.0 0.0 0.00 0.00 0.00 75 1013.6
20260901022538 82 264 0.0 0.0 0.00 0.00 0.00 75 1013.7
20260901022053 82 264 0.0 2.0 0.00 0.00 0.00 75 1013.6
20260901021549 82 264 1.0 2.0 0.00 0.00 0.00 75 1013.5
20260901021111 82 264 1.0 2.0 0.00 0.00 0.00 74 1013.4
20260901020558 83 264 0.0 0.0 0.00 0.00 0.00 73 1013.4
20260901020037 83 264 0.0 0.0 0.00 0.00 0.00 73 1013.2
20260901015538 83 264 0.0 0.0 0.00 0.00 0.00 74 1013.2
20260901015037 83 264 0.0 0.0 0.00 0.00 0.00 75 1013.3
20260901014554 83 264 0.0 1.0 0.00 0.00 0.00 75 1013.2
20260901014032 83 264 0.0 1.0 0.00 0.00 0.00 75 1013.2
20260901013548 83 264 1.0 1.0 0.00 0.00 0.00 75 1013.1
20260901013046 84 264 0.0 1.0 0.00 0.00 0.00 75 1013.1
20260901012543 84 264 0.0 1.0 0.00 0.00 0.00 74 1013.1
20260901012102 84 264 1.0 1.0 0.00 0.00 0.00 73 1013.2
20260901011538 84 264 0.0 0.0 0.00 0.00 0.00 72 1013.1
20260901011056 84 264 0.0 0.0 0.00 0.00 0.00 73 1013.2
20260901010608 84 264 0.0 0.0 0.00 0.00 0.00 72 1013.2
20260901010043 84 264 0.0 1.0 0.00 0.00 0.00 72 1013.1
20260901005541 84 264 1.0 1.0 0.00 0.00 0.00 72 1013.1
20260901005039 85 264 0.0 0.0 0.00 0.00 0.00 72 1013.2
20260901004536 85 264 0.0 0.0 0.00 0.00 0.00 72 1013.3
20260901004045 85 264 0.0 0.0 0.00 0.00 0.00 71 1013.3
20260901003542 85 264 0.0 0.0 0.00 0.00 0.00 70 1013.3
20260901003100 85 264 0.0 0.0 0.00 0.00 0.00 69 1013.3
20260901002534 86 264 0.0 0.0 0.00 0.00 0.00 69 1013.3
20260901002031 86 264 0.0 0.0 0.00 0.00 0.00 69 1013.3
20260901001531 86 264 0.0 1.0 0.00 0.00 0.00 69 1013.2
20260901001048 87 264 0.0 1.0 0.00 0.00 0.00 68 1013.3
20260901000557 87 264 0.0 0.0 0.00 0.00 0.00 67 1013.4
20260901000033 87 264 0.0 1.0 0.00 0.00 0.00 66 1013.4
20260831235548 88 264 0.0 1.0 0.00 0.00 0.00 66 1013.4
20260831235044 88 264 0.0 0.0 0.00 0.00 0.00 65 1013.4
20260831234540 88 264 0.0 1.0 0.00 0.00 0.00 64 1013.4
20260831234036 88 264 0.0 2.0 0.00 0.00 0.00 64 1013.3
20260831233533 88 264 1.0 2.0 0.00 0.00 0.00 63 1013.4
20260831233049 88 264 1.0 2.0 0.00 0.00 0.00 64 1013.4
20260831232546 88 264 0.0 2.0 0.00 0.00 0.00 63 1013.4
20260831232043 89 264 1.0 2.0 0.00 0.00 0.00 63 1013.4
20260831231558 89 264 1.0 3.0 0.00 0.00 0.00 64 1013.4
20260831231034 89 264 1.0 3.0 0.00 0.00 0.00 62 1013.4
20260831230609 89 287 1.0 5.0 0.00 0.00 0.00 64 1013.4
20260831230041 89 287 2.0 5.0 0.00 0.00 0.00 63 1013.5
20260831225538 89 199 1.0 3.0 0.00 0.00 0.00 63 1013.5
20260831225034 89 198 2.0 5.0 0.00 0.00 0.00 63 1013.4
20260831224531 88 238 0.0 3.0 0.00 0.00 0.00 64 1013.4
20260831224030 89 239 2.0 3.0 0.00 0.00 0.00 64 1013.4
20260831223606 89 221 2.0 3.0 0.00 0.00 0.00 63 1013.4
20260831223044 89 222 2.0 4.0 0.00 0.00 0.00 63 1013.4
20260831222540 88 220 2.0 4.0 0.00 0.00 0.00 63 1013.4
20260831222036 88 221 1.0 4.0 0.00 0.00 0.00 63 1013.5
20260831221532 88 243 1.0 3.0 0.00 0.00 0.00 63 1013.5
20260831221048 88 276 1.0 3.0 0.00 0.00 0.00 62 1013.5
20260831220556 88 283 1.0 4.0 0.00 0.00 0.00 63 1013.4
20260831220034 88 286 2.0 5.0 0.00 0.00 0.00 63 1013.4
20260831215530 89 233 3.0 6.0 0.00 0.00 0.00 60 1013.4
20260831215046 89 218 3.0 6.0 0.00 0.00 0.00 61 1013.5
20260831214541 89 208 0.0 4.0 0.00 0.00 0.00 64 1013.5
20260831214038 88 198 3.0 5.0 0.00 0.00 0.00 63 1013.5
20260831213535 88 207 3.0 5.0 0.00 0.00 0.00 62 1013.7
20260831213032 88 217 3.0 5.0 0.00 0.00 0.00 63 1013.8
20260831212548 88 251 2.0 5.0 0.00 0.00 0.00 64 1013.7
20260831212045 88 224 3.0 5.0 0.00 0.00 0.00 62 1013.7
20260831211540 88 218 2.0 5.0 0.00 0.00 0.00 63 1013.7
20260831211040 88 219 2.0 4.0 0.00 0.00 0.00 63 1013.7
20260831210549 88 213 3.0 4.0 0.00 0.00 0.00 62 1013.7
20260831210047 89 223 3.0 5.0 0.00 0.00 0.00 61 1013.7
20260831205604 89 225 2.0 7.0 0.00 0.00 0.00 59 1013.8
20260831205039 90 205 2.0 5.0 0.00 0.00 0.00 61 1013.7
20260831204536 89 215 3.0 6.0 0.00 0.00 0.00 60 1013.8
20260831204031 90 237 3.0 6.0 0.00 0.00 0.00 60 1013.8
20260831203547 89 215 3.0 6.0 0.00 0.00 0.00 64 1013.9
20260831203045 89 266 2.0 6.0 0.00 0.00 0.00 64 1013.9
20260831202601 88 235 2.0 5.0 0.00 0.00 0.00 64 1013.9
20260831202058 88 221 3.0 5.0 0.00 0.00 0.00 64 1013.9
20260831201532 88 219 2.0 5.0 0.00 0.00 0.00 65 1014.0
20260831201112 87 274 3.0 5.0 0.00 0.00 0.00 65 1014.0
20260831200558 87 238 2.0 6.0 0.00 0.00 0.00 66 1013.9
20260831200056 87 271 2.0 6.0 0.00 0.00 0.00 67 1014.0
20260831195530 87 211 3.0 6.0 0.00 0.00 0.00 67 1013.9
20260831195046 87 195 4.0 6.0 0.00 0.00 0.00 68 1014.1
20260831194542 87 190 2.0 5.0 0.00 0.00 0.00 67 1014.0
20260831194038 87 217 3.0 5.0 0.00 0.00 0.00 68 1014.1
20260831193533 87 223 2.0 4.0 0.00 0.00 0.00 68 1014.0
20260831193049 87 238 3.0 4.0 0.00 0.00 0.00 65 1013.9
20260831192544 88 242 2.0 4.0 0.00 0.00 0.00 64 1013.9
20260831192100 88 271 1.0 5.0 0.00 0.00 0.00 61 1013.9
20260831191534 88 276 2.0 5.0 0.00 0.00 0.00 61 1014.0
20260831191035 89 255 3.0 5.0 0.00 0.00 0.00 62 1013.9
20260831190626 89 206 2.0 5.0 0.00 0.00 0.00 63 1013.9
20260831190042 89 207 2.0 5.0 0.00 0.00 0.00 66 1013.8
20260831185539 89 210 2.0 4.0 0.00 0.00 0.00 64 1013.8
20260831185036 89 198 2.0 5.0 0.00 0.00 0.00 63 1013.9
20260831184531 89 195 2.0 6.0 0.00 0.00 0.00 64 1013.8
20260831184048 89 194 3.0 6.0 0.00 0.00 0.00 65 1013.7
20260831183543 89 217 2.0 4.0 0.00 0.00 0.00 64 1013.7
20260831183059 89 216 1.0 3.0 0.00 0.00 0.00 65 1013.7
20260831182553 89 216 1.0 4.0 0.00 0.00 0.00 63 1013.8
20260831182110 89 217 2.0 4.0 0.00 0.00 0.00 62 1013.9
20260831181545 89 215 2.0 4.0 0.00 0.00 0.00 63 1013.8
20260831181103 88 215 2.0 5.0 0.00 0.00 0.00 64 1013.8
20260831180550 88 219 1.0 5.0 0.00 0.00 0.00 65 1013.8
20260831180048 88 234 2.0 4.0 0.00 0.00 0.00 66 1013.7
20260831175544 88 217 1.0 4.0 0.00 0.00 0.00 65 1013.7
20260831175040 87 206 2.0 6.0 0.00 0.00 0.00 66 1013.7
20260831174537 87 193 3.0 6.0 0.00 0.00 0.00 68 1013.9
20260831174052 86 229 2.0 4.0 0.00 0.00 0.00 64 1013.9
20260831173547 86 252 2.0 4.0 0.00 0.00 0.00 66 1013.9
20260831173043 85 245 1.0 4.0 0.00 0.00 0.00 66 1013.9
20260831172539 85 249 1.0 3.0 0.00 0.00 0.00 67 1014.0
20260831172036 85 249 1.0 3.0 0.00 0.00 0.00 67 1013.9
20260831171552 85 257 2.0 4.0 0.00 0.00 0.00 68 1013.9
20260831171046 84 261 2.0 6.0 0.00 0.00 0.00 68 1013.8
20260831170554 84 331 2.0 6.0 0.00 0.00 0.00 68 1013.7
20260831170051 84 333 3.0 6.0 0.00 0.00 0.00 67 1013.7
20260831165530 83 269 2.0 5.0 0.00 0.00 0.00 71 1013.6
20260831165103 83 327 2.0 5.0 0.00 0.00 0.00 71 1013.7
20260831164559 83 286 2.0 5.0 0.00 0.00 0.00 70 1013.6
20260831164054 82 285 2.0 5.0 0.00 0.00 0.00 70 1013.4
20260831163534 82 284 3.0 5.0 0.00 0.00 0.00 71 1013.4
20260831163049 82 328 2.0 6.0 0.00 0.00 0.00 71 1013.4
20260831162545 82 281 2.0 6.0 0.00 0.00 0.00 70 1013.5
20260831162041 82 314 2.0 4.0 0.00 0.00 0.00 71 1013.5
20260831161538 82 333 3.0 4.0 0.00 0.00 0.00 70 1013.4
20260831161054 81 279 1.0 4.0 0.00 0.00 0.00 71 1013.2
20260831160606 81 312 3.0 4.0 0.00 0.00 0.00 70 1013.2
20260831160040 81 312 2.0 5.0 0.00 0.00 0.00 71 1013.1
20260831155536 81 360 3.0 5.0 0.00 0.00 0.00 71 1012.8
20260831155032 81 335 0.0 6.0 0.00 0.00 0.00 72 1012.8
20260831154610 80 337 2.0 7.0 0.00 0.00 0.00 73 1012.9
20260831154045 80 341 3.0 7.0 0.00 0.00 0.00 73 1012.9
20260831153538 80 323 2.0 6.0 0.00 0.00 0.00 75 1012.5
20260831153033 80 280 2.0 5.0 0.00 0.00 0.00 75 1012.8
20260831152549 80 321 2.0 4.0 0.00 0.00 0.00 75 1013.0
20260831152045 80 328 3.0 5.0 0.00 0.00 0.00 75 1012.9
20260831151541 80 326 2.0 5.0 0.00 0.00 0.00 77 1012.8
20260831151037 80 342 2.0 5.0 0.00 0.00 0.00 79 1012.9
20260831150608 80 295 2.0 5.0 0.00 0.00 0.00 79 1013.1
20260831150046 80 288 4.0 5.0 0.00 0.00 0.00 79 1012.8
20260831145539 79 296 1.0 3.0 0.00 0.00 0.00 80 1012.4
20260831145039 79 296 2.0 3.0 0.00 0.00 0.00 79 1012.4
20260831144536 79 296 0.0 3.0 0.00 0.00 0.00 81 1012.2
20260831144032 79 296 2.0 3.0 0.00 0.00 0.00 80 1012.5